User: anonymous   Login
Location: Caltech
(34.1382°N, 118.1253°W)
Time: 07:19:43
(UTC-07:00)
Language:

Meteor 2-4 Rocket - Orbit

View from above orbital plane
View from above orbital plane
View from above satellite
View from above satellite

Ground track
Ground track

The orbit data is extracted from the following two-line orbital elements,

1 11289U 79021B   15085.88996967  .00000270  00000-0  13819-3 0  9995
2 11289 081.2451 237.5572 0075896 022.2108 338.2321 14.11489716856109
Epoch (UTC): 26 March 2015 21:21:33
Eccentricity: 0.0075896
inclination: 81.2451°
perigee height: 799 km
apogee height: 909 km
right ascension of ascending node: 237.5572°
argument of perigee: 22.2108°
revolutions per day: 14.11489716
mean anomaly at epoch: 338.2321°
orbit number at epoch: 85610

The dashed part of the orbit path shows where the satellite is in the earth's shadow,  

DLR